Погода в Коркодоне

Погода в Коркодоне : погода сейчас, прогноз погоды и архив. Всё, что Вы хотите узнать о погоде в Коркодоне!

Поиск расширенной информации на нашем сайте:

Другие новости

Новости СМИ2

Главная страница сайта

Новости сайта

03.07.2017

Напоминаем, что на нашем специализированном сайте Метеоцентр.Азия вы можете получить высокодетализированные автоматические прогнозы погоды по пунктам России, СНГ и мира в авиационном формате (включающие направление и скорость ветра, видимость, явления погоды, количество и форму облачности, нижнюю и верхнюю границу облачности).

Рекомендуем: детское кино Отечественное онлайн.

Погода в Коркодоне - сегодня

Время (UTC), дата Ветер
(°,м/с) 
Видим.   Явления Облачность Т
(°С)
Тd
(°С)
f(%) Тe
(°С)
Pmin
(гПа)
dP
(гПа)
Po
(мм)
O2
(г/м3)
Тmin Tmax R s Состояние
почвы
06 23.07.17 260 (З) 20000 м    9/9 600 м кучево-дожд. 
[Cb cap]
+13.8 +8 68 +14  1000.4  -0.2  742  283           
09 23.07.17 тихо ()   20000 м    10/10 600 м кучево-дожд. 
[Cb cap]
+14 +9.1 72 +14  1000.5  0.1  742  283    +14.5       
12 23.07.17 330 (СЗ) 20000 м  в посл. час ливневой дождь  10/10 600 м кучево-дожд. 
[Cb cap]
+11.4 +10.4 94 +15  1001.1  0.5  742  285           
15 23.07.17 140 (ЮВ) 20000 м    10/10 600 м кучево-дожд. 
[Cb cap]
+10 +9.4 96 +12  1000.9  -0.3  742  287           
18 23.07.17 250 (З) 20000 м  местами туман поземный  10/10 300 м 
[St]
+10.4 +9.8 96 +12  1001.9  0.9  743  286           
21 23.07.17 290 (З) 20000 м    10/10 300 м 
[St]
+11.6 +10.8 95 +15  1003.2  1.4  744  285  +9      мокрая 
00 24.07.17 260 (З) 20000 м  слаб. ливневой дождь  10/10 600 м кучево-дожд. 
[Cb cap]
+11.9 +10.5 91 +12               
03 24.07.17 240 (ЮЗ) 20000 м  {ливн. осадки}  9/9 600 м кучево-дожд. 
[Cb cap]
+11.4 +9.9 90 +12  1007.6  2.2  747  287           
06 24.07.17 230 (ЮЗ) 20000 м  {ливн. осадки}  8/8 600 м кучево-дожд. 
[Cb cap]
+15.3 +8.9 66 +16  1009.3  1.8  748  284           
09 24.07.17 310 (СЗ) 20000 м    6/6 1000 м 
[Sc]
+15.4 +7.6 60 +17  1011.3  750  285    +17.7     
12 24.07.17 160 (Ю) 20000 м    4/4 1000 м 
[Sc]
+10.2 +8.1 87 +11  1013.5  1.9  751  290           
15 24.07.17 тихо ()   20000 м    6/6 1000 м 
[Sc]
+6.2 +5.5 95 +6  1015.2  1.6  752  296           
18 24.07.17 тихо ()   20000 м    8/8 1000 м 
[Sc]
+8.3 +7.7 96 +8  1016.1  0.9  753  293           
21 24.07.17 260 (З) 20000 м    9/9 1000 м 
[Sc]
+10.9 +8.7 86 +12  1015.8  -0.1  753  290  +6.2        мокрая 
00 25.07.17 090 (В) 20000 м    4/4 1000 м 
[Cu Sc]
+16 +7.9 59 +17  1014.4  -1.2  752  285           
03 25.07.17 110 (В) 20000 м    3/3 1000 м 
[Cu Sc]
+19.7 +10 53 +22  1012.2  -2.1  750  280           
06 25.07.17 080 (В) 20000 м    3/1 1000 м верхняя 
[Sc|Ci fib]
+21.8 +9.8 46 +23  1009.8  -2.2  749  278           
09 25.07.17 050 (СВ) 20000 м    4/0 верхняя 
[Ci fib]
+21.2 +10.9 52 +24  1008.9  -0.9  748  278    +22.2       
12 25.07.17 220 (ЮЗ) 20000 м    6/0 средняя, верхняя 
[Ac trans|Ci fib]
+13.7 +11.3 85 +18  1008.5  -0.8  748  285           
15 25.07.17 060 (СВ) 20000 м    8/0 средняя 
[Ac trans]
+10 +9.2 95 +11  1007.7  -0.9  747  289           
18 25.07.17 тихо ()   20000 м  местами туман поземный  4/0 верхняя 
[Ci fib]
+7.8 +7.2 96 +8  1007  -0.8  746  291           
21 25.07.17 тихо ()   20000 м    6/0 верхняя 
[Ci fib]
+15 +10 72 +16  1005.9  -0.7  746  283  +7.6        мокрая 
00 26.07.17 100 (В) 20000 м    9/0 средняя, верхняя 
[Ac trans|Ci fib]
+18.1 +11.5 65 +22  1004.3  -1.5  745  279           
03 26.07.17 100 (В) 20000 м    10/10 1000 м кучево-дожд. 
[Cb cap]
+16.8 +12.9 78 +23  1003.1  -1.2  744  280           
06 26.07.17 080 (В) 20000 м    10/10 600 м кучево-дожд. 
[Cb cap]
+17.9 +13.5 75 +25  1001.4  -1.7  742  278           
Время (UTC), дата Ветер
(°,м/с) 
Видим.   Явления Облачность Т
(°С)
Тd
(°С)
f(%) Тe
(°С)
Pmin
(гПа)
dP
(гПа)
Po
(мм)
O2
(г/м3)
Тmin Tmax R s Состояние
почвы

Для получения пояснительной информации подведите курсор к названию столбца.

ПОГОДА в Коркодоне - архив

Всё, что Вы хотите узнать о погоде в Коркодоне - удобно и подробно!

Выберите нужную дату (начиная с 1 января 2015* года) и нажмите кнопку "Найти".
Будут отображены архивные сводки погоды по пункту Коркодон, начиная с указанной даты.


Отображать данные в формате CSV (для использования в таблицах Excel)


Внимание! Наш архив погоды предназначен исключительно для личного некоммерческого использования в познавательных целях. Если Вам необходимы официальные справки о состоянии погоды (для производственных, юридических, коммерческих и т.п. целей), обращайтесь в органы Росгидромета.

*Примечание: данная дата относится к архиву по метеостанциям СССР (Россия, СНГ, Балтия).
Архив по метеостанциям Зарубежной Европы и Азии (кроме Китая) хранится 10 дней, по другим регионам земного шара (Китай, Африка, Америка, Австралия, Океания) - 1 день.

Коркодон - район местоположения метеостанции


Название, широта, долгота, высота метеостанции:
Коркодон 64.7°ш. 154.1°д. 101 м над ур. моря [Российская Федерация]

Дополнительная информация

В oтличие oт бoльшинства пoгoдных сайтoв мы публикуем пoдрoбную метеoинфoрмацию в детальнoм прoфессиoнальнoм фoрмате.

Характеристики температуры и влажнoсти вoздуха измеряются на высoте 2 м в тени вдали oт зданий и деревьев.
Скoрoсть ветра измеряется на высoте 10 м (на урoвне рoста челoвека скoрoсть ветра ниже в 1.5-2 раза). Если метеoстанция нахoдится в гoрoде или в лесу, тo скoрoсть ветра занижена на 2-4 м/с пo сравнению с oткрытым местoм. Скoрoсть ветра над акватoриями крупных рек и oзёр, а также на вершинах хoлмoв на 2-5 м/с выше, чем в oбычных услoвиях.
Атмoсфернoе давление в разных тoчках местнoсти мoжет значительнo oтличаться oт давления на метеoстанции, в зависимoсти oт услoвий рельефа (при пoдъёме на 10 м давление пoнижается примернo на 1 мм рт.ст.).